Regional Weather Roundup
Issued by NWS

Home | Current Version | Previous Version | Graphics & Text | Print | Product List | Glossary On
Versions: 1 2 3 4 5 6 7 8 9 10 11 12 13 14 15 16 17 18 19 20 21 22 23 24 25 26 27 28 29 30 31 32 33 34 35 36 37 38 39 40 41 42 43 44 45 46 47 48 49 50
000
ASUS43 KLSX 040207
RWRMO

WEATHER SUMMARY FOR MISSOURI
NATIONAL WEATHER SERVICE SPRINGFIELD MO
900 PM CDT TUE MAY 03 2016

NOTE: "FAIR" INDICATES FEW OR NO CLOUDS BELOW 12,000 FEET WITH NO
       SIGNIFICANT WEATHER AND/OR OBSTRUCTIONS TO VISIBILITY.
       CURRENT SKY AND/OR WEATHER CONDITIONS ARE NOT AVAILABLE FOR
       CHILLICOTHE AND FARMINGTON.

MOZ001>031-035>038-043-044-053-054-040300-
...NORTHERN AND WESTERN MISSOURI...

CITY           SKY/WX    TMP DP  RH WIND       PRES   REMARKS
KANSAS CTY INT PTCLDY    62  41  46 W5        29.94S
KANSAS C DTWN  CLEAR     65  42  43 W3        29.93S
LEE`S SUMMIT   MOCLDY    62  42  47 W5        29.95S
ST JOSEPH      PTCLDY    60  45  57 SW7       29.92F
CHILLICOTHE      N/A     56  47  71 CALM      29.91F
KIRKSVILLE     CLEAR     58  41  53 SW5       29.89F

$$
MOZ066>068-077>081-088>096-101>105-040300-
...SOUTHWEST MISSOURI...

CITY           SKY/WX    TMP DP  RH WIND       PRES   REMARKS
SPRINGFIELD    CLEAR     53  42  66 SW5       29.98S
JOPLIN         CLEAR     57  46  66 CALM      29.99S
BRANSON        CLEAR     55  39  54 CALM      30.01R

$$
MOZ032>034-039>042-045>050-055>058-069>072-040300-
...CENTRAL MISSOURI...

CITY           SKY/WX    TMP DP  RH WIND       PRES   REMARKS
COLUMBIA       CLEAR     58  43  57 SW7       29.93S
JEFFERSON CITY CLEAR     58  44  60 CALM      29.93F
ROLLA          CLEAR     50  40  68 SW5       29.94S
SEDALIA        CLEAR     59  41  51 SW5       29.95S
WHITEMAN AFB   PTCLDY    61  41  49 SW6       29.93S
WARRENSBURG    CLEAR     59  45  58 SW5       29.94S
OSAGE BEACH    CLEAR     52  37  58 SW3       29.96S

$$
MOZ051-052-059>065-040300-
...EAST CENTRAL MISSOURI...

CITY           SKY/WX    TMP DP  RH WIND       PRES   REMARKS
ST LOUIS INTL  PTCLDY    59  43  55 SW6       29.93S
SPIRIT OF STL  CLEAR     57  45  64 SW3       29.92S
ST CHARLES     CLEAR     56  50  80 SW6       29.91S

$$
MOZ072>076-082>087-097>100-106>115-040300-
...SOUTH CENTRAL AND SOUTHEAST MISSOURI...

CITY           SKY/WX    TMP DP  RH WIND       PRES   REMARKS
CAPE GIRARDEAU CLEAR     53  48  83 W6        29.95S
FARMINGTON     CLEAR     52  46  80 CALM      29.96S
POPLAR BLUFF   CLOUDY    58  50  75 NE8       29.96R
WEST PLAINS    CLEAR     55  39  54 NW3       29.98S

$$


USA.gov is the U.S. government's official web portal to all federal, state and local government web resources and services.